Year,Month,Day,Hour,Minute,Value (Times are PST for temperature in C)
2016,06,29,00,00,18.10
2016,06,29,00,01,18.10
2016,06,29,00,02,18.10
2016,06,29,00,03,18.00
2016,06,29,00,04,18.00
2016,06,29,00,05,17.90
2016,06,29,00,06,17.90
2016,06,29,00,07,17.90
2016,06,29,00,08,17.90
2016,06,29,00,09,17.90
2016,06,29,00,10,17.80
2016,06,29,00,11,17.80
2016,06,29,00,12,17.80
2016,06,29,00,13,17.80
2016,06,29,00,14,17.70
2016,06,29,00,15,17.70
2016,06,29,00,16,17.70
2016,06,29,00,17,17.70
2016,06,29,00,18,17.70
2016,06,29,00,19,17.60
2016,06,29,00,20,17.60
2016,06,29,00,21,17.60
2016,06,29,00,22,17.60
2016,06,29,00,23,17.50
2016,06,29,00,24,17.50
2016,06,29,00,25,17.50
2016,06,29,00,26,17.50
2016,06,29,00,27,17.40
2016,06,29,00,28,17.40
2016,06,29,00,29,17.40
2016,06,29,00,30,17.40
2016,06,29,00,31,17.40
2016,06,29,00,32,17.40
2016,06,29,00,33,17.40
2016,06,29,00,34,17.30
2016,06,29,00,35,17.30
2016,06,29,00,36,17.30
2016,06,29,00,37,17.30
2016,06,29,00,38,17.30
2016,06,29,00,39,17.30
2016,06,29,00,40,17.30
2016,06,29,00,41,17.20
2016,06,29,00,42,17.20
2016,06,29,00,43,17.20
2016,06,29,00,44,17.20
2016,06,29,00,45,17.20
2016,06,29,00,46,17.20
2016,06,29,00,47,17.10
2016,06,29,00,48,17.10
2016,06,29,00,49,17.10
2016,06,29,00,50,17.10
2016,06,29,00,51,17.00
2016,06,29,00,52,17.00
2016,06,29,00,53,17.00
2016,06,29,00,54,16.90
2016,06,29,00,55,16.90
2016,06,29,00,56,16.90
2016,06,29,00,57,16.90
2016,06,29,00,58,16.90
2016,06,29,00,59,16.90
2016,06,29,01,00,16.90
2016,06,29,01,01,16.90
2016,06,29,01,02,16.90
2016,06,29,01,03,16.80
2016,06,29,01,04,16.80
2016,06,29,01,05,16.80
2016,06,29,01,06,16.80
2016,06,29,01,07,16.80
2016,06,29,01,08,16.80
2016,06,29,01,09,16.70
2016,06,29,01,10,16.70
2016,06,29,01,11,16.70
2016,06,29,01,12,16.70
2016,06,29,01,13,16.70
2016,06,29,01,14,16.70
2016,06,29,01,15,16.70
2016,06,29,01,16,16.70
2016,06,29,01,17,16.70
2016,06,29,01,18,16.70
2016,06,29,01,19,16.70
2016,06,29,01,20,16.70
2016,06,29,01,21,16.70
2016,06,29,01,22,16.70
2016,06,29,01,23,16.70
2016,06,29,01,24,16.70
2016,06,29,01,25,16.70
2016,06,29,01,26,16.70
2016,06,29,01,27,16.70
2016,06,29,01,28,16.70
2016,06,29,01,29,16.70
2016,06,29,01,30,16.70
2016,06,29,01,31,16.70
2016,06,29,01,32,16.60
2016,06,29,01,33,16.60
2016,06,29,01,34,16.60
2016,06,29,01,35,16.60
2016,06,29,01,36,16.60
2016,06,29,01,37,16.60
2016,06,29,01,38,16.60
2016,06,29,01,39,16.60
2016,06,29,01,40,16.60
2016,06,29,01,41,16.60
2016,06,29,01,42,16.60
2016,06,29,01,43,16.60
2016,06,29,01,44,16.50
2016,06,29,01,45,16.50
2016,06,29,01,46,16.50
2016,06,29,01,47,16.50
2016,06,29,01,48,16.50
2016,06,29,01,49,16.50
2016,06,29,01,50,16.50
2016,06,29,01,51,16.50
2016,06,29,01,52,16.40
2016,06,29,01,53,16.40
2016,06,29,01,54,16.40
2016,06,29,01,55,16.40
2016,06,29,01,56,16.40
2016,06,29,01,57,16.40
2016,06,29,01,58,16.40
2016,06,29,01,59,16.40
2016,06,29,02,00,16.30
2016,06,29,02,01,16.30
2016,06,29,02,02,16.30
2016,06,29,02,03,16.30
2016,06,29,02,04,16.20
2016,06,29,02,05,16.20
2016,06,29,02,06,16.20
2016,06,29,02,07,16.20
2016,06,29,02,08,16.20
2016,06,29,02,09,16.20
2016,06,29,02,10,16.20
2016,06,29,02,11,16.20
2016,06,29,02,12,16.20
2016,06,29,02,13,16.10
2016,06,29,02,14,16.10
2016,06,29,02,15,16.10
2016,06,29,02,16,16.10
2016,06,29,02,17,16.00
2016,06,29,02,18,16.00
2016,06,29,02,19,16.00
2016,06,29,02,20,16.00
2016,06,29,02,21,15.90
2016,06,29,02,22,15.90
2016,06,29,02,23,15.90
2016,06,29,02,24,15.80
2016,06,29,02,25,15.80
2016,06,29,02,26,15.70
2016,06,29,02,27,15.70
2016,06,29,02,28,15.70
2016,06,29,02,29,15.70
2016,06,29,02,30,15.60
2016,06,29,02,31,15.60
2016,06,29,02,32,15.60
2016,06,29,02,33,15.50
2016,06,29,02,34,15.50
2016,06,29,02,35,15.50
2016,06,29,02,36,15.40
2016,06,29,02,37,15.40
2016,06,29,02,38,15.40
2016,06,29,02,39,15.40
2016,06,29,02,40,15.40
2016,06,29,02,41,15.40
2016,06,29,02,42,15.30
2016,06,29,02,43,15.30
2016,06,29,02,44,15.30
2016,06,29,02,45,15.30
2016,06,29,02,46,15.30
2016,06,29,02,47,15.30
2016,06,29,02,48,15.30
2016,06,29,02,49,15.30
2016,06,29,02,50,15.30
2016,06,29,02,51,15.30
2016,06,29,02,52,15.20
2016,06,29,02,53,15.20
2016,06,29,02,54,15.20
2016,06,29,02,55,15.20
2016,06,29,02,56,15.10
2016,06,29,02,57,15.10
2016,06,29,02,58,15.10
2016,06,29,02,59,15.10
2016,06,29,03,00,15.00
2016,06,29,03,01,15.00
2016,06,29,03,02,15.00
2016,06,29,03,03,14.90
2016,06,29,03,04,14.90
2016,06,29,03,05,14.90
2016,06,29,03,06,14.80
2016,06,29,03,07,14.80
2016,06,29,03,08,14.80
2016,06,29,03,09,14.80
2016,06,29,03,10,14.80
2016,06,29,03,11,14.80
2016,06,29,03,12,14.70
2016,06,29,03,13,14.70
2016,06,29,03,14,14.70
2016,06,29,03,15,14.60
2016,06,29,03,16,14.60
2016,06,29,03,17,14.60
2016,06,29,03,18,14.60
2016,06,29,03,19,14.50
2016,06,29,03,20,14.60
2016,06,29,03,21,14.60
2016,06,29,03,22,14.60
2016,06,29,03,23,14.60
2016,06,29,03,24,14.70
2016,06,29,03,25,14.70
2016,06,29,03,26,14.70
2016,06,29,03,27,14.80
2016,06,29,03,28,14.80
2016,06,29,03,29,14.80
2016,06,29,03,30,14.90
2016,06,29,03,31,14.90
2016,06,29,03,32,14.90
2016,06,29,03,33,14.90
2016,06,29,03,34,14.90
2016,06,29,03,35,14.90
2016,06,29,03,36,14.90
2016,06,29,03,37,14.90
2016,06,29,03,38,14.90
2016,06,29,03,39,14.90
2016,06,29,03,40,14.90
2016,06,29,03,41,14.90
2016,06,29,03,42,14.90
2016,06,29,03,43,14.90
2016,06,29,03,44,14.90
2016,06,29,03,45,14.90
2016,06,29,03,46,14.90
2016,06,29,03,47,14.90
2016,06,29,03,48,14.80
2016,06,29,03,49,14.80
2016,06,29,03,50,14.80
2016,06,29,03,51,14.80
2016,06,29,03,52,14.80
2016,06,29,03,53,14.80
2016,06,29,03,54,14.80
2016,06,29,03,55,14.80
2016,06,29,03,56,14.80
2016,06,29,03,57,14.80
2016,06,29,03,58,14.80
2016,06,29,03,59,14.70
2016,06,29,04,00,14.70
2016,06,29,04,01,14.70
2016,06,29,04,02,14.70
2016,06,29,04,03,14.70
2016,06,29,04,04,14.70
2016,06,29,04,05,14.70
2016,06,29,04,06,14.70
2016,06,29,04,07,14.70
2016,06,29,04,08,14.70
2016,06,29,04,09,14.70
2016,06,29,04,10,14.70
2016,06,29,04,11,14.70
2016,06,29,04,12,14.70
2016,06,29,04,13,14.70
2016,06,29,04,14,14.70
2016,06,29,04,15,14.60
2016,06,29,04,16,14.60
2016,06,29,04,17,14.60
2016,06,29,04,18,14.60
2016,06,29,04,19,14.60
2016,06,29,04,20,14.60
2016,06,29,04,21,14.60
2016,06,29,04,22,14.50
2016,06,29,04,23,14.50
2016,06,29,04,24,14.50
2016,06,29,04,25,14.50
2016,06,29,04,26,14.50
2016,06,29,04,27,14.40
2016,06,29,04,28,14.40
2016,06,29,04,29,14.40
2016,06,29,04,30,14.40
2016,06,29,04,31,14.40
2016,06,29,04,32,14.40
2016,06,29,04,33,14.40
2016,06,29,04,34,14.40
2016,06,29,04,35,14.40
2016,06,29,04,36,14.40
2016,06,29,04,37,14.40
2016,06,29,04,38,14.30
2016,06,29,04,39,14.30
2016,06,29,04,40,14.30
2016,06,29,04,41,14.30
2016,06,29,04,42,14.30
2016,06,29,04,43,14.30
2016,06,29,04,44,14.30
2016,06,29,04,45,14.30
2016,06,29,04,46,14.30
2016,06,29,04,47,14.30
2016,06,29,04,48,14.30
2016,06,29,04,49,14.20
2016,06,29,04,50,14.20
2016,06,29,04,51,14.20
2016,06,29,04,52,14.20
2016,06,29,04,53,14.20
2016,06,29,04,54,14.20
2016,06,29,04,55,14.20
2016,06,29,04,56,14.20
2016,06,29,04,57,14.20
2016,06,29,04,58,14.20
2016,06,29,04,59,14.20
2016,06,29,05,00,14.20
2016,06,29,05,01,14.20
2016,06,29,05,02,14.20
2016,06,29,05,03,14.20
2016,06,29,05,04,14.20
2016,06,29,05,05,14.20
2016,06,29,05,06,14.10
2016,06,29,05,07,14.10
2016,06,29,05,08,14.10
2016,06,29,05,09,14.10
2016,06,29,05,10,14.10
2016,06,29,05,11,14.10
2016,06,29,05,12,14.10
2016,06,29,05,13,14.10
2016,06,29,05,14,14.10
2016,06,29,05,15,14.10
2016,06,29,05,16,14.00
2016,06,29,05,17,14.00
2016,06,29,05,18,14.00
2016,06,29,05,19,14.00
2016,06,29,05,20,14.00
2016,06,29,05,21,14.00
2016,06,29,05,22,13.90
2016,06,29,05,23,13.90
2016,06,29,05,24,13.90
2016,06,29,05,25,13.90
2016,06,29,05,26,13.90
2016,06,29,05,27,13.90
2016,06,29,05,28,13.90
2016,06,29,05,29,13.90
2016,06,29,05,30,13.80
2016,06,29,05,31,13.80
2016,06,29,05,32,13.80
2016,06,29,05,33,13.80
2016,06,29,05,34,13.80
2016,06,29,05,35,13.80
2016,06,29,05,36,13.80
2016,06,29,05,37,13.80
2016,06,29,05,38,13.80
2016,06,29,05,39,13.80
2016,06,29,05,40,13.90
2016,06,29,05,41,13.90
2016,06,29,05,42,13.90
2016,06,29,05,43,13.90
2016,06,29,05,44,13.90
2016,06,29,05,45,13.90
2016,06,29,05,46,13.90
2016,06,29,05,47,13.90
2016,06,29,05,48,13.90
2016,06,29,05,49,14.00
2016,06,29,05,50,14.00
2016,06,29,05,51,14.00
2016,06,29,05,52,14.00
2016,06,29,05,53,14.00
2016,06,29,05,54,14.00
2016,06,29,05,55,14.00
2016,06,29,05,56,14.10
2016,06,29,05,57,14.10
2016,06,29,05,58,14.10
2016,06,29,05,59,14.10
2016,06,29,06,00,14.10
2016,06,29,06,01,14.10
2016,06,29,06,02,14.10
2016,06,29,06,03,14.10
2016,06,29,06,04,14.10
2016,06,29,06,05,14.10
2016,06,29,06,06,14.20
2016,06,29,06,07,14.20
2016,06,29,06,08,14.20
2016,06,29,06,09,14.20
2016,06,29,06,10,14.20
2016,06,29,06,11,14.30
2016,06,29,06,12,14.30
2016,06,29,06,13,14.30
2016,06,29,06,14,14.30
2016,06,29,06,15,14.30
2016,06,29,06,16,14.30
2016,06,29,06,17,14.30
2016,06,29,06,18,14.40
2016,06,29,06,19,14.40
2016,06,29,06,20,14.40
2016,06,29,06,21,14.40
2016,06,29,06,22,14.40
2016,06,29,06,23,14.40
2016,06,29,06,24,14.40
2016,06,29,06,25,14.40
2016,06,29,06,26,14.40
2016,06,29,06,27,14.40
2016,06,29,06,28,14.40
2016,06,29,06,29,14.40
2016,06,29,06,30,14.40
2016,06,29,06,31,14.40
2016,06,29,06,32,14.40
2016,06,29,06,33,14.40
2016,06,29,06,34,14.40
2016,06,29,06,35,14.40
2016,06,29,06,36,14.50
2016,06,29,06,37,14.50
2016,06,29,06,38,14.50
2016,06,29,06,39,14.50
2016,06,29,06,40,14.50
2016,06,29,06,41,14.60
2016,06,29,06,42,14.50
2016,06,29,06,43,14.60
2016,06,29,06,44,14.60
2016,06,29,06,45,14.50
2016,06,29,06,46,14.50
2016,06,29,06,47,14.50
2016,06,29,06,48,14.50
2016,06,29,06,49,14.60
2016,06,29,06,50,14.60
2016,06,29,06,51,14.60
2016,06,29,06,52,14.60
2016,06,29,06,53,14.60
2016,06,29,06,54,14.60
2016,06,29,06,55,14.70
2016,06,29,06,56,14.80
2016,06,29,06,57,14.80
2016,06,29,06,58,14.80
2016,06,29,06,59,14.90
2016,06,29,07,00,14.90
2016,06,29,07,01,15.00
2016,06,29,07,02,15.00
2016,06,29,07,03,15.10
2016,06,29,07,04,15.10
2016,06,29,07,05,15.20
2016,06,29,07,06,15.20
2016,06,29,07,07,15.30
2016,06,29,07,08,15.40
2016,06,29,07,09,15.40
2016,06,29,07,10,15.50
2016,06,29,07,11,15.50
2016,06,29,07,12,15.60
2016,06,29,07,13,15.60
2016,06,29,07,14,15.60
2016,06,29,07,15,15.60
2016,06,29,07,16,15.60
2016,06,29,07,17,15.70
2016,06,29,07,18,15.70
2016,06,29,07,19,15.70
2016,06,29,07,20,15.70
2016,06,29,07,21,15.70
2016,06,29,07,22,15.70
2016,06,29,07,23,15.70
2016,06,29,07,24,15.70
2016,06,29,07,25,15.70
2016,06,29,07,26,15.70
2016,06,29,07,27,15.70
2016,06,29,07,28,15.70
2016,06,29,07,29,15.80
2016,06,29,07,30,15.80
2016,06,29,07,31,15.90
2016,06,29,07,32,15.90
2016,06,29,07,33,16.00
2016,06,29,07,34,16.00
2016,06,29,07,35,16.10
2016,06,29,07,36,16.10
2016,06,29,07,37,16.10
2016,06,29,07,38,16.10
2016,06,29,07,39,16.20
2016,06,29,07,40,16.20
2016,06,29,07,41,16.20
2016,06,29,07,42,16.30
2016,06,29,07,43,16.30
2016,06,29,07,44,16.30
2016,06,29,07,45,16.30
2016,06,29,07,46,16.30
2016,06,29,07,47,16.40
2016,06,29,07,48,16.40
2016,06,29,07,49,16.40
2016,06,29,07,50,16.40
2016,06,29,07,51,16.40
2016,06,29,07,52,16.50
2016,06,29,07,53,16.50
2016,06,29,07,54,16.60
2016,06,29,07,55,16.60
2016,06,29,07,56,16.60
2016,06,29,07,57,16.60
2016,06,29,07,58,16.60
2016,06,29,07,59,16.60
2016,06,29,08,00,16.60
2016,06,29,08,01,16.60
2016,06,29,08,02,16.60
2016,06,29,08,03,16.60
2016,06,29,08,04,16.60
2016,06,29,08,05,16.70
2016,06,29,08,06,16.70
2016,06,29,08,07,16.70
2016,06,29,08,08,16.70
2016,06,29,08,09,16.70
2016,06,29,08,10,16.70
2016,06,29,08,11,16.70
2016,06,29,08,12,16.70
2016,06,29,08,13,16.70
2016,06,29,08,14,16.70
2016,06,29,08,15,16.70
2016,06,29,08,16,16.60
2016,06,29,08,17,16.60
2016,06,29,08,18,16.60
2016,06,29,08,19,16.60
2016,06,29,08,20,16.60
2016,06,29,08,21,16.60
2016,06,29,08,22,16.60
2016,06,29,08,23,16.70
2016,06,29,08,24,16.70
2016,06,29,08,25,16.80
2016,06,29,08,26,16.80
2016,06,29,08,27,16.90
2016,06,29,08,28,16.90
2016,06,29,08,29,16.90
2016,06,29,08,30,16.90
2016,06,29,08,31,16.90
2016,06,29,08,32,17.00
2016,06,29,08,33,17.00
2016,06,29,08,34,17.00
2016,06,29,08,35,17.10
2016,06,29,08,36,17.00
2016,06,29,08,37,17.00
2016,06,29,08,38,17.10
2016,06,29,08,39,17.10
2016,06,29,08,40,17.10
2016,06,29,08,41,17.10
2016,06,29,08,42,17.10
2016,06,29,08,43,17.10
2016,06,29,08,44,17.20
2016,06,29,08,45,17.20
2016,06,29,08,46,17.20
2016,06,29,08,47,17.20
2016,06,29,08,48,17.20
2016,06,29,08,49,17.20
2016,06,29,08,50,17.20
2016,06,29,08,51,17.30
2016,06,29,08,52,17.30
2016,06,29,08,53,17.30
2016,06,29,08,54,17.30
2016,06,29,08,55,17.30
2016,06,29,08,56,17.30
2016,06,29,08,57,17.40
2016,06,29,08,58,17.40
2016,06,29,08,59,17.40
2016,06,29,09,00,17.40
2016,06,29,09,01,17.40
2016,06,29,09,02,17.50
2016,06,29,09,03,17.50
2016,06,29,09,04,17.60
2016,06,29,09,05,17.60
2016,06,29,09,06,17.60
2016,06,29,09,07,17.70
2016,06,29,09,08,17.70
2016,06,29,09,09,17.70
2016,06,29,09,10,17.70
2016,06,29,09,11,17.70
2016,06,29,09,12,17.70
2016,06,29,09,13,17.70
2016,06,29,09,14,17.70
2016,06,29,09,15,17.70
2016,06,29,09,16,17.70
2016,06,29,09,17,17.80
2016,06,29,09,18,17.80
2016,06,29,09,19,17.90
2016,06,29,09,20,17.90
2016,06,29,09,21,18.00
2016,06,29,09,22,18.10
2016,06,29,09,23,18.20
2016,06,29,09,24,18.10
2016,06,29,09,25,18.10
2016,06,29,09,26,18.10
2016,06,29,09,27,18.10
2016,06,29,09,28,18.00
2016,06,29,09,29,17.90
2016,06,29,09,30,17.90
2016,06,29,09,31,17.90
2016,06,29,09,32,17.90
2016,06,29,09,33,18.00
2016,06,29,09,34,18.00
2016,06,29,09,35,18.00
2016,06,29,09,36,18.00
2016,06,29,09,37,18.10
2016,06,29,09,38,18.10
2016,06,29,09,39,18.10
2016,06,29,09,40,18.10
2016,06,29,09,41,18.10
2016,06,29,09,42,18.10
2016,06,29,09,43,18.10
2016,06,29,09,44,18.10
2016,06,29,09,45,18.10
2016,06,29,09,46,18.10
2016,06,29,09,47,18.10
2016,06,29,09,48,18.10
2016,06,29,09,49,18.10
2016,06,29,09,50,18.10
2016,06,29,09,51,18.10
2016,06,29,09,52,18.20
2016,06,29,09,53,18.20
2016,06,29,09,54,18.20
2016,06,29,09,55,18.20
2016,06,29,09,56,18.20
2016,06,29,09,57,18.20
2016,06,29,09,58,18.30
2016,06,29,09,59,18.30
2016,06,29,10,00,18.40
2016,06,29,10,01,18.40
2016,06,29,10,02,18.60
2016,06,29,10,03,18.60
2016,06,29,10,04,18.70
2016,06,29,10,05,18.70
2016,06,29,10,06,18.70
2016,06,29,10,07,18.70
2016,06,29,10,08,18.70
2016,06,29,10,09,18.70
2016,06,29,10,10,18.70
2016,06,29,10,11,18.70
2016,06,29,10,12,18.70
2016,06,29,10,13,18.70
2016,06,29,10,14,18.70
2016,06,29,10,15,18.60
2016,06,29,10,16,18.60
2016,06,29,10,17,18.60
2016,06,29,10,18,18.60
2016,06,29,10,19,18.70
2016,06,29,10,20,18.70
2016,06,29,10,21,18.80
2016,06,29,10,22,18.90
2016,06,29,10,23,19.00
2016,06,29,10,24,19.20
2016,06,29,10,25,19.30
2016,06,29,10,26,19.40
2016,06,29,10,27,19.40
2016,06,29,10,28,19.40
2016,06,29,10,29,19.40
2016,06,29,10,30,19.40
2016,06,29,10,31,19.50
2016,06,29,10,32,19.60
2016,06,29,10,33,19.60
2016,06,29,10,34,19.60
2016,06,29,10,35,19.60
2016,06,29,10,36,19.60
2016,06,29,10,37,19.50
2016,06,29,10,38,19.50
2016,06,29,10,39,19.60
2016,06,29,10,40,19.60
2016,06,29,10,41,19.60
2016,06,29,10,42,19.60
2016,06,29,10,43,19.70
2016,06,29,10,44,19.80
2016,06,29,10,45,19.80
2016,06,29,10,46,19.90
2016,06,29,10,47,19.90
2016,06,29,10,48,20.00
2016,06,29,10,49,20.20
2016,06,29,10,50,20.20
2016,06,29,10,51,20.20
2016,06,29,10,52,20.30
2016,06,29,10,53,20.30
2016,06,29,10,54,20.30
2016,06,29,10,55,20.40
2016,06,29,10,56,20.50
2016,06,29,10,57,20.50
2016,06,29,10,58,20.70
2016,06,29,10,59,20.60
2016,06,29,11,00,20.60
2016,06,29,11,01,20.60
2016,06,29,11,02,20.60
2016,06,29,11,03,20.60
2016,06,29,11,04,20.70
2016,06,29,11,05,20.80
2016,06,29,11,06,20.80
2016,06,29,11,07,20.80
2016,06,29,11,08,20.80
2016,06,29,11,09,20.80
2016,06,29,11,10,20.80
2016,06,29,11,11,20.80
2016,06,29,11,12,20.80
2016,06,29,11,13,20.80
2016,06,29,11,14,20.80
2016,06,29,11,15,20.80
2016,06,29,11,16,20.80
2016,06,29,11,17,20.80
2016,06,29,11,18,20.90
2016,06,29,11,19,21.00
2016,06,29,11,20,21.10
2016,06,29,11,21,21.10
2016,06,29,11,22,21.10
2016,06,29,11,23,21.20
2016,06,29,11,24,21.20
2016,06,29,11,25,21.30
2016,06,29,11,26,21.40
2016,06,29,11,27,21.40
2016,06,29,11,28,21.40
2016,06,29,11,29,21.50
2016,06,29,11,30,21.50
2016,06,29,11,31,21.60
2016,06,29,11,32,21.60
2016,06,29,11,33,21.60
2016,06,29,11,34,21.70
2016,06,29,11,35,21.70
2016,06,29,11,36,21.80
2016,06,29,11,37,21.80
2016,06,29,11,38,21.80
2016,06,29,11,39,21.80
2016,06,29,11,40,21.80
2016,06,29,11,41,21.80
2016,06,29,11,42,21.80
2016,06,29,11,43,21.80
2016,06,29,11,44,21.80
2016,06,29,11,45,21.80
2016,06,29,11,46,21.80
2016,06,29,11,47,21.70
2016,06,29,11,48,21.70
2016,06,29,11,49,21.60
2016,06,29,11,50,21.70
2016,06,29,11,51,21.70
2016,06,29,11,52,21.70
2016,06,29,11,53,21.70
2016,06,29,11,54,21.70
2016,06,29,11,55,21.70
2016,06,29,11,56,21.80
2016,06,29,11,57,21.80
2016,06,29,11,58,21.80
2016,06,29,11,59,21.90
2016,06,29,12,00,22.00
2016,06,29,12,01,22.10
2016,06,29,12,02,22.10
2016,06,29,12,03,22.10
2016,06,29,12,04,22.10
2016,06,29,12,05,22.10
2016,06,29,12,06,22.20
2016,06,29,12,07,22.20
2016,06,29,12,08,22.30
2016,06,29,12,09,22.30
2016,06,29,12,10,22.30
2016,06,29,12,11,22.30
2016,06,29,12,12,22.30
2016,06,29,12,13,22.30
2016,06,29,12,14,22.20
2016,06,29,12,15,22.20
2016,06,29,12,16,22.20
2016,06,29,12,17,22.20
2016,06,29,12,18,22.20
2016,06,29,12,19,22.20
2016,06,29,12,20,22.30
2016,06,29,12,21,22.30
2016,06,29,12,22,22.50
2016,06,29,12,23,22.60
2016,06,29,12,24,22.80
2016,06,29,12,25,22.90
2016,06,29,12,26,23.00
2016,06,29,12,27,23.20
2016,06,29,12,28,23.20
2016,06,29,12,29,23.20
2016,06,29,12,30,23.30
2016,06,29,12,31,23.20
2016,06,29,12,32,23.20
2016,06,29,12,33,23.20
2016,06,29,12,34,23.20
2016,06,29,12,35,23.10
2016,06,29,12,36,23.10
2016,06,29,12,37,23.10
2016,06,29,12,38,23.10
2016,06,29,12,39,23.00
2016,06,29,12,40,23.00
2016,06,29,12,41,23.10
2016,06,29,12,42,23.10
2016,06,29,12,43,23.30
2016,06,29,12,44,23.30
2016,06,29,12,45,23.40
2016,06,29,12,46,23.40
2016,06,29,12,47,23.40
2016,06,29,12,48,23.50
2016,06,29,12,49,23.60
2016,06,29,12,50,23.80
2016,06,29,12,51,23.90
2016,06,29,12,52,24.00
2016,06,29,12,53,24.10
2016,06,29,12,54,24.20
2016,06,29,12,55,24.20
2016,06,29,12,56,24.20
2016,06,29,12,57,24.10
2016,06,29,12,58,24.10
2016,06,29,12,59,24.10
2016,06,29,13,00,24.10
2016,06,29,13,01,24.20
2016,06,29,13,02,24.20
2016,06,29,13,03,24.20
2016,06,29,13,04,24.20
2016,06,29,13,05,24.20
2016,06,29,13,06,24.20
2016,06,29,13,07,24.10
2016,06,29,13,08,24.10
2016,06,29,13,09,24.00
2016,06,29,13,10,23.90
2016,06,29,13,11,23.90
2016,06,29,13,12,23.80
2016,06,29,13,13,23.80
2016,06,29,13,14,23.70
2016,06,29,13,15,23.70
2016,06,29,13,16,23.70
2016,06,29,13,17,23.70
2016,06,29,13,18,23.80
2016,06,29,13,19,23.80
2016,06,29,13,20,23.80
2016,06,29,13,21,23.80
2016,06,29,13,22,23.90
2016,06,29,13,23,23.90
2016,06,29,13,24,24.00
2016,06,29,13,25,24.10
2016,06,29,13,26,24.10
2016,06,29,13,27,24.20
2016,06,29,13,28,24.20
2016,06,29,13,29,24.30
2016,06,29,13,30,24.40
2016,06,29,13,31,24.40
2016,06,29,13,32,24.60
2016,06,29,13,33,24.70
2016,06,29,13,34,24.80
2016,06,29,13,35,24.80
2016,06,29,13,36,24.90
2016,06,29,13,37,24.90
2016,06,29,13,38,25.00
2016,06,29,13,39,25.00
2016,06,29,13,40,25.10
2016,06,29,13,41,25.10
2016,06,29,13,42,25.10
2016,06,29,13,43,25.10
2016,06,29,13,44,25.10
2016,06,29,13,45,25.10
2016,06,29,13,46,25.10
2016,06,29,13,47,25.10
2016,06,29,13,48,25.10
2016,06,29,13,49,25.10
2016,06,29,13,50,25.20
2016,06,29,13,51,25.20
2016,06,29,13,52,25.30
2016,06,29,13,53,25.30
2016,06,29,13,54,25.30
2016,06,29,13,55,25.20
2016,06,29,13,56,25.20
2016,06,29,13,57,25.10
2016,06,29,13,58,25.10
2016,06,29,13,59,25.20
2016,06,29,14,00,25.20
2016,06,29,14,01,25.20
2016,06,29,14,02,25.30
2016,06,29,14,03,25.40
2016,06,29,14,04,25.40
2016,06,29,14,05,25.50
2016,06,29,14,06,25.60
2016,06,29,14,07,25.60
2016,06,29,14,08,25.70
2016,06,29,14,09,25.80
2016,06,29,14,10,25.90
2016,06,29,14,11,25.90
2016,06,29,14,12,26.00
2016,06,29,14,13,26.10
2016,06,29,14,14,26.20
2016,06,29,14,15,26.20
2016,06,29,14,16,26.20
2016,06,29,14,17,26.10
2016,06,29,14,18,26.10
2016,06,29,14,19,26.10
2016,06,29,14,20,26.10
2016,06,29,14,21,26.10
2016,06,29,14,22,26.10
2016,06,29,14,23,26.00
2016,06,29,14,24,25.80
2016,06,29,14,25,25.70
2016,06,29,14,26,25.60
2016,06,29,14,27,25.60
2016,06,29,14,28,25.60
2016,06,29,14,29,25.60
2016,06,29,14,30,25.60
2016,06,29,14,31,25.60
2016,06,29,14,32,25.70
2016,06,29,14,33,25.80
2016,06,29,14,34,25.80
2016,06,29,14,35,25.90
2016,06,29,14,36,26.00
2016,06,29,14,37,26.00
2016,06,29,14,38,26.10
2016,06,29,14,39,26.20
2016,06,29,14,40,26.20
2016,06,29,14,41,26.30
2016,06,29,14,42,26.20
2016,06,29,14,43,26.20
2016,06,29,14,44,26.30
2016,06,29,14,45,26.40
2016,06,29,14,46,26.40
2016,06,29,14,47,26.50
2016,06,29,14,48,26.50
2016,06,29,14,49,26.60
2016,06,29,14,50,26.60
2016,06,29,14,51,26.60
2016,06,29,14,52,26.60
2016,06,29,14,53,26.60
2016,06,29,14,54,26.60
2016,06,29,14,55,26.60
2016,06,29,14,56,26.50
2016,06,29,14,57,26.50
2016,06,29,14,58,26.50
2016,06,29,14,59,26.60
2016,06,29,15,00,26.60
2016,06,29,15,01,26.60
2016,06,29,15,02,26.60
2016,06,29,15,03,26.60
2016,06,29,15,04,26.60
2016,06,29,15,05,26.60
2016,06,29,15,06,26.60
2016,06,29,15,07,26.50
2016,06,29,15,08,26.50
2016,06,29,15,09,26.50
2016,06,29,15,10,26.50
2016,06,29,15,11,26.40
2016,06,29,15,12,26.50
2016,06,29,15,13,26.50
2016,06,29,15,14,26.50
2016,06,29,15,15,26.50
2016,06,29,15,16,26.50
2016,06,29,15,17,26.50
2016,06,29,15,18,26.50
2016,06,29,15,19,26.50
2016,06,29,15,20,26.40
2016,06,29,15,21,26.40
2016,06,29,15,22,26.40
2016,06,29,15,23,26.40
2016,06,29,15,24,26.40
2016,06,29,15,25,26.50
2016,06,29,15,26,26.60
2016,06,29,15,27,26.60
2016,06,29,15,28,26.70
2016,06,29,15,29,26.60
2016,06,29,15,30,26.60
2016,06,29,15,31,26.50
2016,06,29,15,32,26.50
2016,06,29,15,33,26.50
2016,06,29,15,34,26.40
2016,06,29,15,35,26.50
2016,06,29,15,36,26.50
2016,06,29,15,37,26.60
2016,06,29,15,38,26.60
2016,06,29,15,39,26.70
2016,06,29,15,40,26.70
2016,06,29,15,41,26.70
2016,06,29,15,42,26.70
2016,06,29,15,43,26.70
2016,06,29,15,44,26.60
2016,06,29,15,45,26.50
2016,06,29,15,46,26.50
2016,06,29,15,47,26.50
2016,06,29,15,48,26.40
2016,06,29,15,49,26.40
2016,06,29,15,50,26.40
2016,06,29,15,51,26.30
2016,06,29,15,52,26.30
2016,06,29,15,53,26.20
2016,06,29,15,54,26.20
2016,06,29,15,55,26.10
2016,06,29,15,56,26.10
2016,06,29,15,57,26.10
2016,06,29,15,58,26.10
2016,06,29,15,59,26.10
2016,06,29,16,00,26.00
2016,06,29,16,01,25.90
2016,06,29,16,02,25.80
2016,06,29,16,03,25.70
2016,06,29,16,04,25.70
2016,06,29,16,05,25.80
2016,06,29,16,06,25.80
2016,06,29,16,07,25.80
2016,06,29,16,08,25.80
2016,06,29,16,09,25.80
2016,06,29,16,10,25.80
2016,06,29,16,11,25.80
2016,06,29,16,12,25.80
2016,06,29,16,13,25.80
2016,06,29,16,14,25.80
2016,06,29,16,15,25.80
2016,06,29,16,16,25.90
2016,06,29,16,17,26.00
2016,06,29,16,18,26.10
2016,06,29,16,19,26.20
2016,06,29,16,20,26.30
2016,06,29,16,21,26.30
2016,06,29,16,22,26.30
2016,06,29,16,23,26.40
2016,06,29,16,24,26.40
2016,06,29,16,25,26.50
2016,06,29,16,26,26.60
2016,06,29,16,27,26.70
2016,06,29,16,28,26.80
2016,06,29,16,29,26.80
2016,06,29,16,30,26.80
2016,06,29,16,31,26.80
2016,06,29,16,32,26.80
2016,06,29,16,33,26.80
2016,06,29,16,34,26.80
2016,06,29,16,35,26.70
2016,06,29,16,36,26.60
2016,06,29,16,37,26.60
2016,06,29,16,38,26.60
2016,06,29,16,39,26.60
2016,06,29,16,40,26.60
2016,06,29,16,41,26.70
2016,06,29,16,42,26.70
2016,06,29,16,43,26.70
2016,06,29,16,44,26.70
2016,06,29,16,45,26.60
2016,06,29,16,46,26.60
2016,06,29,16,47,26.50
2016,06,29,16,48,26.40
2016,06,29,16,49,26.30
2016,06,29,16,50,26.20
2016,06,29,16,51,26.00
2016,06,29,16,52,26.00
2016,06,29,16,53,25.90
2016,06,29,16,54,25.70
2016,06,29,16,55,25.50
2016,06,29,16,56,25.40
2016,06,29,16,57,25.30
2016,06,29,16,58,25.30
2016,06,29,16,59,25.30
2016,06,29,17,00,25.30
2016,06,29,17,01,25.30
2016,06,29,17,02,25.30
2016,06,29,17,03,25.40
2016,06,29,17,04,25.40
2016,06,29,17,05,25.50
2016,06,29,17,06,25.60
2016,06,29,17,07,25.70
2016,06,29,17,08,25.80
2016,06,29,17,09,25.80
2016,06,29,17,10,25.80
2016,06,29,17,11,25.80
2016,06,29,17,12,25.90
2016,06,29,17,13,26.00
2016,06,29,17,14,26.00
2016,06,29,17,15,26.20
2016,06,29,17,16,26.20
2016,06,29,17,17,26.30
2016,06,29,17,18,26.30
2016,06,29,17,19,26.30